Startpagina
METAR-TAF:

METAR-TAF

Vliegvelden :

Fort Morgan, Colorado, Verenigde Staten

breedte: 40-20-02N, lengte: 103-48-15W, hoogte: 1393 m

Actueel weer

Dit bericht is 27 minuten geleden gemaakt, om 15:55 UTC
Wind 22 kt uit het noordnoordwesten met uitschieters tot 29 kt
Temperatuur 9°C
Vochtigheid 49%
Druk 1023 hPa
Zicht: 16.1 km

METAR: KFMM 181555Z AUTO 34022G29KT 10SM 09/M01 A3020 RMK AO2 T00851008

Tijdstip: 10:22 (16:22 UTC)


TAF: ontbreekt

Waarnemingen en weersverwachtingen van meer dan 4000 vliegvelden (METAR en TAF).

De beschikbare stations zijn de gele en rode punten op de kaart.

Ga met uw muis naar het station om de naam te zien.

Klik dan om waarnemingen en weersverwachtingen te zien.

kaart wijzigen: klik op de groene knoppen met een zwart kruis om in te zoomen, op de groene knop met een streepje om uit te zoomen of op de groene pijlen voor aangrenzende kaarten.


METAR-TAF: